Regional Weather Roundup
Issued by NWS Glasgow, MT

Home | Current Version | Previous Version | Text Only | Print | Product List | Glossary On
Versions: 1 2 3 4 5 6 7 8 9 10 11 12 13 14 15 16 17 18 19 20 21 22 23 24 25 26 27 28 29 30 31 32 33 34 35 36 37 38 39 40 41 42 43 44 45 46 47 48 49 50
372
ASUS45 KGGW 061315
RWRGGW
HOURLY REGIONAL WEATHER ROUNDUP FOR NORTHEAST MONTANA
NATIONAL WEATHER SERVICE GLASGOW MONTANA
700 AM MDT FRI MAY 06 2016

NOTE: "FAIR" INDICATES FEW OR NO CLOUDS BELOW 12,000 FEET WITH NO
SIGNIFICANT WEATHER AND/OR OBSTRUCTIONS TO VISISBILITY.

NORTHEAST MONTANA


CITY           SKY/WX    TMP DP  RH WIND       PRES   REMARKS
GLASGOW        CLOUDY    53  43  68 NW9       30.12R HAZE
PLENTYWOOD       N/A     53  42  66 N17G25      N/A
WOLF POINT     CLOUDY    55  43  63 N14       30.10R
JORDAN           N/A     54  43  66 N12       30.11R
WINNETT          N/A     52  43  71 NW12G26     N/A
SIDNEY         CLOUDY    55  41  58 N16       30.02R
GLENDIVE       CLOUDY    55  43  62 N21G26    30.05R
MALTA            N/A     51  45  79 W8G18       N/A
SCOBEY           N/A     50  39  66 NW9       30.08R
OPHEIM           N/A     45  41  87 CALM      29.90R

FORT PECK REPORTS


CITY           SKY/WX    TMP DP  RH WIND       PRES   REMARKS
FORT PECK        N/A     54  42  64 N16         N/A
THE PINES        N/A     54  41  61 N9G18       N/A

SOUTHEAST MONTANA


CITY           SKY/WX    TMP DP  RH WIND       PRES   REMARKS
BILLINGS       CLOUDY    55  41  59 N10       30.14R HAZE
MILES CITY     CLOUDY    59  42  53 NE20      30.01R
BAKER          MOSUNNY   57  43  59 N23G29    29.97R
LIVINGSTON     PTCLDY    55  39  54 E21G28    30.12R

CENTRAL MONTANA


CITY           SKY/WX    TMP DP  RH WIND       PRES   REMARKS
HAVRE          CLOUDY    49  45  86 CALM      30.21R
LEWISTOWN      CLOUDY    47  45  93 W8        30.21R FOG
GREAT FALLS    LGT RAIN  46  44  93 N10       30.24R
CUT BANK       CLOUDY    46  42  86 N7        30.27R
HELENA         LGT RAIN  50  44  80 NW7       30.20R
BUTTE          CLOUDY    45  38  76 S3        30.15R
BOZEMAN        PTCLDY    49  42  77 W5        30.10R

WESTERN MONTANA


CITY           SKY/WX    TMP DP  RH WIND       PRES   REMARKS
MISSOULA       PTCLDY    53  42  66 MISG      30.11R
KALISPELL      NOT AVBL

NORTH DAKOTA


CITY           SKY/WX    TMP DP  RH WIND       PRES   REMARKS
WILLISTON      NOT AVBL
DICKINSON      NOT AVBL
MINOT          NOT AVBL
BISMARCK       NOT AVBL

SOUTHERN SASKATCHEWAN


CITY           SKY/WX    TMP DP  RH WIND       PRES   REMARKS
REGINA         PTSUNNY   50  39  66 N13       30.10R
MOOSE JAW      CLOUDY    48  39  71 NW10      30.15R
ESTEVAN        PTSUNNY   54  43  66 N17       30.01R
SWIFT CURRENT  MOSUNNY   43  36  75 W12       30.18R





USA.gov is the U.S. government's official web portal to all federal, state and local government web resources and services.